[[{"header":{"parameterUnit":"m.s-1","parameterCategory":1,"la1":30.2991,"la2":30.254,"lo1":-89.0895,"lo2":-89.0444,"dy":0.0017,"dx":0.0017,"nx":28,"ny":28,"refTime":"2026-02-04T03:00:00:Z","depth":0,"parameterNumber":2,"parameterNumberName":"U-component_of_WINDS"},"data":[0,0,0,0,0,0,0,0,0,0,0,0,0,0,0,0,0,0,0,0,0,0,0,0,0,0,0,0,0,0,0,0,0,0,0,0,0,0,0,0,0,0,0,0,0,0,0,0,0,0,0,0,0,0,0,0,0,0,2.1879,2.1879,0,2.1897,2.1898,2.1898,2.1877,2.1876,2.1876,2.1875,2.1893,2.1894,2.1896,0,0,0,0,0,0,0,0,0,0,0,0,0,2.1827,2.1828,2.1879,2.1879,2.188,2.1897,2.1898,2.1898,2.1877,2.1876,2.1875,2.1875,2.1893,2.1894,2.1896,0,0,0,0,0,0,0,0,0,0,0,0,0,2.1848,2.1829,2.1879,2.1871,2.1871,2.1897,2.1898,2.1898,2.1878,2.1876,2.1875,2.1874,2.1892,2.1894,2.1896,2.1931,0,0,2.1902,2.1902,0,0,0,0,0,0,0,0,2.1847,2.185,2.1872,2.1872,2.1872,2.1884,2.1886,2.1909,2.1878,2.1875,2.1875,2.1874,2.1891,2.1893,2.1899,2.1931,2.1932,2.1902,2.1903,2.1904,2.1904,0,0,0,0,0,0,0,2.1845,2.1849,2.1886,2.1873,2.1872,2.1867,2.1869,2.189,2.1889,2.1875,2.1874,2.1876,2.1891,2.1897,2.1899,2.1932,2.1902,2.1903,2.1904,2.1905,2.1996,2.1997,0,0,0,0,0,0,2.1845,2.1848,2.1886,2.1887,2.1856,2.1869,2.1871,2.1881,2.1889,2.1889,2.1877,2.1875,2.1895,2.1897,2.19,2.1942,2.1904,2.1905,2.1906,2.1995,2.1996,2.1998,0,0,0,0,0,0,2.1844,2.1848,2.1885,2.1867,2.1871,2.1871,2.1883,2.1882,2.1889,2.1891,2.189,2.1884,2.1894,2.1897,2.1923,2.1942,2.1906,2.1908,2.1993,2.1995,2.1997,2.2025,0,0,0,0,0,0,2.1842,2.1848,2.1861,2.1868,2.1872,2.1908,2.1884,2.1883,2.1892,2.1889,2.1897,2.1897,2.1893,2.1921,2.1925,2.1944,2.1909,2.1991,2.1994,2.1996,2.2022,2.2028,2.2032,0,0,0,0,0,2.1841,2.1868,2.1862,2.1866,2.1888,2.1909,2.1912,2.1907,2.1893,2.1906,2.1908,2.1897,2.1939,2.1924,2.1928,2.1948,2.199,2.1993,2.1996,2.202,2.2027,2.2032,0,0,0,0,0,0,2.1863,2.1868,2.1862,2.1892,2.19,2.1906,2.1922,2.1914,2.1926,2.1923,2.1917,2.1919,2.1947,2.195,2.1932,2.1983,2.1963,2.1967,2.1979,2.1985,2.199,2.1989,2.1911,0,0,0,0,0,2.1871,2.1887,2.1892,2.1918,2.1922,2.1922,2.193,2.1926,2.1935,2.1938,2.1941,2.195,2.1966,2.1976,2.199,2.2023,2.2025,2.2039,2.2044,2.2048,2.2051,2.207,2.2077,2.2007,2.2007,2.2007,0,0,2.1888,2.1894,2.1904,2.1922,2.1928,2.1946,2.1925,2.1944,2.1957,2.1941,2.1966,2.1969,2.1978,2.2009,2.2022,2.2012,2.2071,2.2052,2.2055,2.2056,2.2074,2.2081,2.2087,2.2009,2.2009,2.2009,0,0,2.1929,2.1934,2.1957,2.1964,2.1974,2.1974,2.1979,2.1986,2.1988,2.2013,2.2002,2.2018,2.2044,2.2052,2.2059,2.2105,2.2095,2.211,2.2135,2.2154,2.2159,2.2164,2.2181,2.2187,2.2113,2.2113,2.2113,0,2.1949,2.1975,2.197,2.199,2.1999,2.1986,2.201,2.2017,2.2031,2.2037,2.2026,2.206,2.2065,2.2098,2.2109,2.2115,2.2122,2.2108,2.2159,2.2164,2.2168,2.2184,2.219,2.2115,2.2115,2.2115,2.2115,0,2.2,2.2018,2.2035,2.205,2.206,2.2082,2.2081,2.2093,2.2088,2.2089,2.2116,2.2122,2.2138,2.2145,2.2141,2.2178,2.2171,2.216,2.2139,2.2176,2.2191,2.2197,2.2118,2.2117,2.2116,2.2116,0,0,2.2053,2.2066,2.2072,2.2079,2.209,2.2104,2.2126,2.2142,2.2152,2.2163,2.2181,2.2205,2.2195,2.2203,2.22,2.2216,2.2253,2.2202,2.2203,2.2212,2.2295,2.2304,2.2311,2.2247,2.2248,2.2249,2.2294,0,2.2094,2.2132,2.2129,2.2165,2.2182,2.2171,2.219,2.2199,2.2202,2.2217,2.2219,2.2236,2.2221,2.2226,2.2242,2.2245,2.227,2.2242,2.2264,2.2265,2.2262,2.2318,2.2327,2.237,2.23,2.2301,2.2302,0,2.2146,2.216,2.2197,2.2207,2.2214,2.2231,2.2247,2.2261,2.2272,2.2272,2.2283,2.2277,2.23,2.228,2.2311,2.2293,2.2302,2.2305,2.2307,2.2308,2.2285,2.2322,2.2383,2.2389,2.2311,2.231,2.2309,0,2.2182,2.2209,2.2236,2.2242,2.2254,2.2266,2.2272,2.2281,2.2292,2.2305,2.2312,2.2328,2.2337,2.235,2.2348,2.2334,2.2381,2.2361,2.2382,2.2383,2.2392,2.2391,2.2456,2.2399,2.2398,2.2398,2.2398,0,2.2228,2.2252,2.2252,2.2268,2.2295,2.2292,2.2318,2.2322,2.2331,2.2349,2.2341,2.2357,2.2355,2.2371,2.2371,2.2398,2.2402,2.2403,2.2402,2.2403,2.2403,2.2409,2.2406,2.24,2.24,2.2399,2.2399,0,2.2272,2.2273,2.2301,2.2311,2.2314,2.2333,2.2341,2.2357,2.2359,2.2381,2.2386,2.2389,2.2409,2.2409,2.2431,2.2431,2.2464,2.246,2.2461,2.246,2.2482,2.248,2.2552,2.2561,2.2498,2.2499,2.2499,0,2.2301,2.2319,2.2331,2.2342,2.2348,2.2366,2.2377,2.2376,2.2387,2.2402,2.2416,2.2435,2.245,2.2482,2.2486,2.2504,2.25,2.2524,2.2503,2.2504,2.2501,2.25,2.2502,2.2528,2.2529,2.253,2.253,0,2.2352,2.2353,2.2368,2.2385,2.2399,2.2412,2.2424,2.2434,2.2433,2.2447,2.2467,2.2479,2.2503,2.2522,2.2539,2.2545,2.2538,2.2537,2.2543,2.2544,2.2544,2.2545,2.2472,2.2535,2.2535,2.2534,2.2534,2.2534,2.239,2.2406,2.2417,2.2436,2.2445,2.2457,2.2472,2.2477,2.2494,2.2513,2.2511,2.2534,2.2545,2.2568,2.2576,2.2594,2.2585,2.2594,2.2596,2.2598,2.2601,2.2541,2.2597,2.2597,2.2596,2.2596,2.2596,0,2.2441,2.2448,2.2466,2.2483,2.2498,2.2491,2.2504,2.2517,2.2537,2.2549,2.2564,2.2588,2.2607,2.2614,2.2633,2.2646,2.2643,2.2651,2.265,2.2651,2.2607,2.26,2.2653,2.2653,2.2653,2.2653,2.2653,2.2653,2.247,2.2497,2.2499,2.2531,2.2538,2.256,2.2568,2.258,2.2589,2.2616,2.2632,2.2637,2.2647,2.2666,2.2684,2.2685,2.2693,2.2702,2.2702,2.266,2.2654,2.2649,2.2642,2.2703,2.2704,2.2745,2.2746,2.2746]},{"header":{"parameterUnit":"m.s-1","parameterCategory":1,"la1":30.2991,"la2":30.254,"lo1":-89.0895,"lo2":-89.0444,"dy":0.0017,"dx":0.0017,"nx":28,"ny":28,"refTime":"2026-02-04T03:00:00:Z","depth":0,"parameterNumber":3,"parameterNumberName":"V-component_of_WINDS"},"data":[0,0,0,0,0,0,0,0,0,0,0,0,0,0,0,0,0,0,0,0,0,0,0,0,0,0,0,0,0,0,0,0,0,0,0,0,0,0,0,0,0,0,0,0,0,0,0,0,0,0,0,0,0,0,0,0,0,0,-7.7671,-7.7672,0,-7.7822,-7.7824,-7.7826,-7.7784,-7.778,-7.7777,-7.7774,-7.7923,-7.793,-7.7936,0,0,0,0,0,0,0,0,0,0,0,0,0,-7.7339,-7.7345,-7.767,-7.7672,-7.7674,-7.7822,-7.7824,-7.7826,-7.7784,-7.778,-7.7777,-7.7773,-7.7921,-7.7929,-7.7937,0,0,0,0,0,0,0,0,0,0,0,0,0,-7.7486,-7.7347,-7.767,-7.7671,-7.7673,-7.7822,-7.7824,-7.7827,-7.7785,-7.778,-7.7776,-7.7771,-7.7918,-7.7928,-7.7938,-7.8093,0,0,-7.7969,-7.7974,0,0,0,0,0,0,0,0,-7.7478,-7.7498,-7.7669,-7.7671,-7.7673,-7.7779,-7.7762,-7.7916,-7.7786,-7.7742,-7.7774,-7.7769,-7.7878,-7.7892,-7.793,-7.81,-7.8106,-7.797,-7.7976,-7.7981,-7.7984,0,0,0,0,0,0,0,-7.7468,-7.7491,-7.773,-7.7672,-7.7674,-7.7662,-7.7678,-7.7791,-7.7834,-7.7746,-7.7743,-7.7762,-7.7879,-7.792,-7.7933,-7.8108,-7.797,-7.7979,-7.7985,-7.7989,-7.8415,-7.842,0,0,0,0,0,0,-7.7457,-7.7483,-7.7725,-7.7735,-7.7563,-7.7672,-7.769,-7.775,-7.7833,-7.7841,-7.7766,-7.7759,-7.7905,-7.7921,-7.7938,-7.8127,-7.7981,-7.799,-7.7996,-7.841,-7.8416,-7.8422,0,0,0,0,0,0,-7.745,-7.7479,-7.7719,-7.7609,-7.7638,-7.7683,-7.7751,-7.7755,-7.7797,-7.7848,-7.7855,-7.7801,-7.7902,-7.7924,-7.8056,-7.8131,-7.7995,-7.8004,-7.8404,-7.8412,-7.8419,-7.8503,0,0,0,0,0,0,-7.744,-7.7476,-7.7537,-7.761,-7.7644,-7.7836,-7.7755,-7.7762,-7.7815,-7.7809,-7.7882,-7.789,-7.79,-7.8041,-7.8066,-7.8143,-7.8012,-7.8397,-7.8407,-7.8416,-7.8494,-7.8513,-7.8529,0,0,0,0,0,-7.7429,-7.7552,-7.754,-7.7569,-7.7721,-7.7841,-7.786,-7.7871,-7.7822,-7.7882,-7.7915,-7.7888,-7.8119,-7.8055,-7.8082,-7.8163,-7.8392,-7.8404,-7.8416,-7.8486,-7.8509,-7.8529,0,0,0,0,0,0,-7.7483,-7.7562,-7.7549,-7.7701,-7.7765,-7.7833,-7.791,-7.7895,-7.7972,-7.7962,-7.797,-7.7987,-7.8123,-7.8156,-7.8083,-7.8319,-7.8248,-7.8266,-7.8292,-7.8315,-7.8332,-7.8321,-7.802,0,0,0,0,0,-7.7514,-7.7606,-7.7669,-7.7796,-7.783,-7.7865,-7.7917,-7.792,-7.7986,-7.8012,-7.8054,-7.8117,-7.8204,-7.8261,-7.8344,-7.8499,-7.8514,-7.8568,-7.8586,-7.86,-7.8615,-7.8701,-7.8726,-7.846,-7.846,-7.846,0,0,-7.7576,-7.763,-7.7687,-7.7809,-7.7859,-7.7953,-7.7887,-7.7989,-7.8059,-7.8026,-7.8155,-7.8189,-7.8259,-7.8404,-7.847,-7.8436,-7.8693,-7.8615,-7.8626,-7.8634,-7.8716,-7.8741,-7.8763,-7.8468,-7.8466,-7.8465,0,0,-7.7738,-7.7788,-7.7901,-7.7954,-7.8032,-7.8055,-7.8082,-7.8154,-7.8176,-7.8306,-7.8284,-7.8366,-7.8515,-7.8567,-7.8613,-7.8799,-7.8776,-7.8825,-7.8917,-7.9001,-7.9022,-7.904,-7.9107,-7.9131,-7.884,-7.884,-7.884,0,-7.7804,-7.7948,-7.796,-7.8066,-7.812,-7.8099,-7.8213,-7.8262,-7.8362,-7.8399,-7.836,-7.855,-7.8595,-7.8753,-7.8799,-7.8836,-7.8867,-7.8816,-7.9018,-7.9037,-7.9054,-7.9118,-7.9144,-7.8846,-7.8845,-7.8844,-7.8844,0,-7.8027,-7.8127,-7.8209,-7.831,-7.8373,-7.8482,-7.851,-7.8572,-7.8571,-7.8598,-7.873,-7.8785,-7.888,-7.8917,-7.8915,-7.9075,-7.9052,-7.9016,-7.8945,-7.9085,-7.9146,-7.917,-7.8853,-7.8851,-7.885,-7.8848,0,0,-7.8226,-7.8335,-7.8365,-7.8411,-7.8497,-7.8574,-7.8682,-7.8777,-7.8831,-7.8901,-7.8992,-7.912,-7.9088,-7.9141,-7.9144,-7.9218,-7.9363,-7.9173,-7.9174,-7.9207,-7.9544,-7.9571,-7.9599,-7.9349,-7.9354,-7.9357,-7.9538,0,-7.8396,-7.859,-7.8605,-7.8779,-7.8872,-7.8854,-7.8948,-7.901,-7.9039,-7.912,-7.915,-7.9242,-7.9192,-7.9224,-7.9296,-7.933,-7.9431,-7.9317,-7.9433,-7.9437,-7.9416,-7.9631,-7.9659,-7.9827,-7.9562,-7.9566,-7.9569,0,-7.862,-7.8701,-7.8885,-7.896,-7.9,-7.9085,-7.9174,-7.9253,-7.9323,-7.9339,-7.9399,-7.9394,-7.9504,-7.943,-7.9582,-7.9505,-7.9553,-7.9577,-7.9584,-7.9595,-7.9511,-7.9648,-7.9881,-7.9906,-7.9606,-7.9603,-7.96,0,-7.8748,-7.8902,-7.9033,-7.9073,-7.9164,-7.9224,-7.9264,-7.9331,-7.9388,-7.9465,-7.9503,-7.9591,-7.964,-7.9708,-7.9726,-7.967,-7.9878,-7.9805,-7.9894,-7.9893,-7.9938,-7.9935,-8.0182,-7.9968,-7.9968,-7.9967,-7.9967,0,-7.8937,-7.905,-7.9093,-7.9173,-7.93,-7.9316,-7.944,-7.9476,-7.9536,-7.9622,-7.9611,-7.9692,-7.9711,-7.9795,-7.981,-7.9934,-7.9956,-7.9971,-7.9973,-7.9972,-7.997,-8.0004,-7.9993,-7.9974,-7.9973,-7.9971,-7.997,0,-7.9101,-7.9134,-7.9275,-7.9351,-7.9373,-7.9463,-7.9527,-7.9604,-7.9632,-7.9741,-7.9767,-7.981,-7.9909,-7.9935,-8.0051,-8.0062,-8.0209,-8.02,-8.0186,-8.0186,-8.0273,-8.0265,-8.0551,-8.0589,-8.035,-8.0352,-8.0354,0,-7.9219,-7.9307,-7.9393,-7.9452,-7.9496,-7.9589,-7.9649,-7.9669,-7.9731,-7.9819,-7.9886,-7.9984,-8.0063,-8.0222,-8.0262,-8.0352,-8.0345,-8.044,-8.0358,-8.0355,-8.0348,-8.0343,-8.0352,-8.0455,-8.0457,-8.0459,-8.0461,0,-7.9426,-7.9439,-7.9526,-7.9621,-7.9693,-7.9768,-7.9839,-7.9887,-7.9916,-7.9986,-8.009,-8.0152,-8.0273,-8.0371,-8.0462,-8.0501,-8.0487,-8.0487,-8.0512,-8.0511,-8.05,-8.0509,-8.0229,-8.0479,-8.0478,-8.0476,-8.0475,-8.0474,-7.9571,-7.9649,-7.9724,-7.9822,-7.9878,-7.9946,-8.0023,-8.0062,-8.0149,-8.0252,-8.0258,-8.037,-8.0439,-8.056,-8.0605,-8.0692,-8.0663,-8.0699,-8.0709,-8.0718,-8.0726,-8.0487,-8.0708,-8.0708,-8.0707,-8.0707,-8.0706,0,-7.9778,-7.9826,-7.9917,-8.0019,-8.0097,-8.0079,-8.0158,-8.0223,-8.0323,-8.039,-8.047,-8.0589,-8.0684,-8.0733,-8.0828,-8.0888,-8.0883,-8.0912,-8.0908,-8.0917,-8.0746,-8.0715,-8.0914,-8.0914,-8.0914,-8.0914,-8.0914,-8.0914,-7.9895,-8.0027,-8.0049,-8.0209,-8.0255,-8.0367,-8.0414,-8.0476,-8.053,-8.0665,-8.0745,-8.0778,-8.0838,-8.0937,-8.1023,-8.1035,-8.1071,-8.1103,-8.1111,-8.095,-8.0929,-8.0909,-8.088,-8.1111,-8.1111,-8.1276,-8.1277,-8.1278]}]]